Volver al catálogo

SL-12 DEB

ActivoHEO
NORAD 25809·DEBRIS·🇷🇺 Russia

Lanzado Sep 16, 1987 desde Baikonur Cosmodrome

Loading…

Próximos Pases (próximas 24 horas)

TLE

ActualizadoSource: Space-Track

Época: Sep 11, 2026, 13:18 UTC

1 25809U 87079U   26254.55435514  .00007768  00000-0  26467-2 0  9991
2 25809  65.0467  66.9951 3998360  39.2631 343.8959  7.24693599139257

Sigue SL-12 DEB en tiempo real con AllMySat

Download on the App Store